Overview Statistics Trail Chart Weather Telemetry Raw packets
 

This is the latest recevied weather packets stored in our database for station/object OH2HCY. If no packets are shown the sender has not sent any weather packets the latest 10 day(s).

<< 2 3 4 5 6 7 8 >>
Time Temp. Humidity Pressure Rain* Wind** Luminosity Snow
1788524120 17.22° C 50% 992 hPa - - - -
1788523625 17.78° C 48% 991.7 hPa - - - -
1788523085 18.33° C 47% 991.5 hPa - - - -
1788522560 17.78° C 47% 991.7 hPa - - - -
1788522032 18.33° C 45% 992 hPa - - - -
1788521490 17.78° C 46% 992.1 hPa - - - -
1788520970 17.22° C 45% 992.1 hPa - - - -
1788520392 17.78° C 46% 991.8 hPa - - - -
1788519860 18.33° C 45% 991.4 hPa - - - -
1788519300 18.89° C 48% 991.4 hPa - - - -
1788518752 18.33° C 47% 991.8 hPa - - - -
1788518214 17.78° C 50% 992 hPa - - - -
1788517699 17.22° C 48% 992.2 hPa - - - -
1788517160 17.22° C 47% 992.3 hPa - - - -
1788516628 17.22° C 47% 992.4 hPa - - - -
1788516072 16.67° C 51% 992.6 hPa - - - -
1788515530 16.67° C 52% 992.4 hPa - - - -
1788515005 17.78° C 54% 992.6 hPa - - - -
1788514450 17.22° C 57% 992.9 hPa - - - -
1788513892 16.11° C 61% 993.5 hPa - - - -
1788513355 16.11° C 61% 993.2 hPa - - - -
1788512806 16.67° C 61% 993.2 hPa - - - -
1788512265 16.11° C 60% 993.5 hPa - - - -
1788511757 16.11° C 63% 993.5 hPa - - - -
1788511212 16.11° C 66% 993.6 hPa - - - -

* Rain since midnight (hover to see other rain measurements)
** Current wind speed in m/s (hover to see current wind gust speed)